[[{"header":{"parameterUnit":"m.s-1","parameterCategory":1,"la1":30.2991,"la2":30.254,"lo1":-89.0895,"lo2":-89.0444,"dy":0.0017,"dx":0.0017,"nx":28,"ny":28,"refTime":"2024-07-02T03:00:00:Z","depth":0,"parameterNumber":2,"parameterNumberName":"U-component_of_WINDS"},"data":[0,0,0,0,0,0,0,0,0,0,0,0,0,0,0,0,0,0,0,0,0,0,0,0,0,0,0,0,0,0,0,0,0,0,0,0,0,0,0,0,0,0,0,0,0,0,0,0,0,0,0,0,0,0,0,0,0,0,-3.0792,-3.0792,0,-3.0771,-3.0771,-3.077,-3.0759,-3.0759,-3.0759,-3.0759,-3.0735,-3.0735,-3.0734,0,0,0,0,0,0,0,0,0,0,0,0,0,-3.0822,-3.0821,-3.0792,-3.0792,-3.0792,-3.0771,-3.0771,-3.077,-3.0759,-3.0759,-3.0759,-3.0759,-3.0735,-3.0735,-3.0734,0,0,0,0,0,0,0,0,0,0,0,0,0,-3.0806,-3.0821,-3.0792,-3.0784,-3.0783,-3.0771,-3.0771,-3.077,-3.0759,-3.0759,-3.0759,-3.0759,-3.0736,-3.0735,-3.0734,-3.0729,0,0,-3.0731,-3.0731,0,0,0,0,0,0,0,0,-3.0807,-3.0805,-3.0785,-3.0784,-3.0783,-3.0768,-3.0772,-3.0756,-3.0759,-3.0768,-3.0759,-3.0759,-3.0746,-3.0744,-3.074,-3.0728,-3.0727,-3.0731,-3.073,-3.073,-3.073,0,0,0,0,0,0,0,-3.0808,-3.0805,-3.0784,-3.0785,-3.0784,-3.078,-3.0778,-3.0769,-3.0757,-3.0767,-3.0766,-3.0764,-3.0745,-3.0741,-3.0739,-3.0726,-3.0731,-3.073,-3.073,-3.0729,-3.0709,-3.0709,0,0,0,0,0,0,-3.081,-3.0806,-3.0784,-3.0783,-3.0795,-3.078,-3.0777,-3.0773,-3.0757,-3.0755,-3.0764,-3.0764,-3.0743,-3.0741,-3.0739,-3.0732,-3.073,-3.0729,-3.0729,-3.0709,-3.0709,-3.0709,0,0,0,0,0,0,-3.0811,-3.0809,-3.0785,-3.0795,-3.0791,-3.0779,-3.0774,-3.0772,-3.0768,-3.0755,-3.0753,-3.0762,-3.0743,-3.074,-3.0732,-3.0731,-3.0729,-3.0728,-3.0709,-3.0709,-3.0709,-3.0718,0,0,0,0,0,0,-3.0812,-3.0809,-3.0807,-3.0795,-3.0791,-3.0779,-3.0774,-3.0772,-3.0767,-3.0766,-3.0752,-3.075,-3.0742,-3.0733,-3.0731,-3.073,-3.0727,-3.0709,-3.0709,-3.0709,-3.0718,-3.0718,-3.0719,0,0,0,0,0,-3.0813,-3.081,-3.0807,-3.0804,-3.0788,-3.0779,-3.0777,-3.0768,-3.0767,-3.0764,-3.0756,-3.0751,-3.0732,-3.0732,-3.0729,-3.0728,-3.0709,-3.0709,-3.0709,-3.0718,-3.0718,-3.0719,0,0,0,0,0,0,-3.0821,-3.0808,-3.0805,-3.0797,-3.0789,-3.0777,-3.0774,-3.0769,-3.0761,-3.076,-3.075,-3.0747,-3.074,-3.0733,-3.0734,-3.0723,-3.072,-3.0719,-3.0727,-3.0728,-3.0728,-3.073,-3.0726,0,0,0,0,0,-3.0823,-3.0817,-3.0805,-3.08,-3.0796,-3.0786,-3.0781,-3.0776,-3.0767,-3.0763,-3.0754,-3.0745,-3.0737,-3.0732,-3.0724,-3.0717,-3.0714,-3.0715,-3.0716,-3.0716,-3.0715,-3.0712,-3.0712,-3.0709,-3.0709,-3.0709,0,0,-3.0825,-3.0817,-3.0813,-3.0801,-3.0794,-3.0788,-3.0783,-3.0776,-3.0771,-3.0762,-3.0753,-3.0747,-3.0736,-3.0729,-3.0725,-3.0723,-3.0716,-3.0716,-3.0717,-3.0716,-3.0712,-3.0712,-3.0712,-3.0709,-3.0709,-3.0709,0,0,-3.0825,-3.0818,-3.0813,-3.0807,-3.0797,-3.0791,-3.0789,-3.0778,-3.0773,-3.0765,-3.0758,-3.0752,-3.0739,-3.0732,-3.0726,-3.0725,-3.072,-3.0723,-3.0726,-3.0722,-3.0722,-3.0722,-3.0722,-3.0722,-3.0723,-3.0723,-3.0723,0,-3.0828,-3.0819,-3.0811,-3.0805,-3.08,-3.0792,-3.0787,-3.0781,-3.0769,-3.0766,-3.0764,-3.0747,-3.074,-3.0731,-3.0731,-3.0727,-3.0725,-3.0724,-3.0723,-3.0723,-3.0723,-3.0723,-3.0722,-3.0723,-3.0723,-3.0723,-3.0723,0,-3.0824,-3.0817,-3.0814,-3.0804,-3.0798,-3.0793,-3.0784,-3.078,-3.0775,-3.0768,-3.076,-3.0751,-3.0741,-3.0739,-3.0734,-3.0729,-3.0729,-3.0725,-3.0722,-3.0724,-3.0723,-3.0723,-3.0724,-3.0724,-3.0723,-3.0723,0,0,-3.0827,-3.0814,-3.0813,-3.0808,-3.0797,-3.0792,-3.0786,-3.0777,-3.0774,-3.0766,-3.0761,-3.075,-3.0747,-3.0741,-3.0735,-3.0732,-3.0732,-3.0729,-3.0729,-3.073,-3.0727,-3.0729,-3.0729,-3.0729,-3.0729,-3.0729,-3.0728,0,-3.0826,-3.0816,-3.0809,-3.0801,-3.0795,-3.0789,-3.0784,-3.0777,-3.0771,-3.0765,-3.0758,-3.0751,-3.0747,-3.0744,-3.0741,-3.0733,-3.0732,-3.0733,-3.0724,-3.0724,-3.0726,-3.0729,-3.0731,-3.073,-3.0728,-3.0728,-3.0728,0,-3.0822,-3.0816,-3.0808,-3.0798,-3.0796,-3.0791,-3.0783,-3.0778,-3.0769,-3.0765,-3.0759,-3.0754,-3.0747,-3.0745,-3.0736,-3.0738,-3.0734,-3.0729,-3.0729,-3.0727,-3.0725,-3.0727,-3.073,-3.073,-3.0727,-3.0727,-3.0727,0,-3.0826,-3.0815,-3.0809,-3.0805,-3.0794,-3.0791,-3.0786,-3.0778,-3.0774,-3.0766,-3.0763,-3.0755,-3.0751,-3.0745,-3.0737,-3.0736,-3.0729,-3.0726,-3.0725,-3.0725,-3.0723,-3.0723,-3.0725,-3.0721,-3.0721,-3.0721,-3.0721,0,-3.0825,-3.082,-3.081,-3.0807,-3.0801,-3.0794,-3.0789,-3.0783,-3.0776,-3.0771,-3.0765,-3.076,-3.075,-3.0745,-3.0739,-3.0732,-3.073,-3.0726,-3.0725,-3.0727,-3.0727,-3.0723,-3.0723,-3.0721,-3.0721,-3.0721,-3.0721,0,-3.0827,-3.0821,-3.0814,-3.0804,-3.0802,-3.0798,-3.079,-3.0786,-3.078,-3.0774,-3.0772,-3.0763,-3.0756,-3.0748,-3.0738,-3.0734,-3.0728,-3.0725,-3.0731,-3.0729,-3.0729,-3.0729,-3.0728,-3.0727,-3.0724,-3.0724,-3.0725,0,-3.0827,-3.0823,-3.0814,-3.081,-3.0806,-3.08,-3.0796,-3.0788,-3.0784,-3.0775,-3.0772,-3.0765,-3.0758,-3.0747,-3.0739,-3.0732,-3.0729,-3.073,-3.0728,-3.073,-3.0729,-3.0729,-3.0729,-3.073,-3.073,-3.073,-3.073,0,-3.0826,-3.0823,-3.0818,-3.0811,-3.0806,-3.08,-3.0794,-3.0792,-3.0783,-3.0779,-3.0772,-3.0767,-3.0757,-3.075,-3.0742,-3.0736,-3.0732,-3.0731,-3.073,-3.0732,-3.0735,-3.0733,-3.0731,-3.073,-3.073,-3.073,-3.073,-3.073,-3.0827,-3.0824,-3.0817,-3.0811,-3.0806,-3.08,-3.0796,-3.0791,-3.0785,-3.0777,-3.0773,-3.0766,-3.0759,-3.0747,-3.0742,-3.0737,-3.0735,-3.0734,-3.0734,-3.0733,-3.0734,-3.0736,-3.0735,-3.0735,-3.0735,-3.0735,-3.0735,0,-3.0826,-3.0822,-3.0816,-3.0808,-3.0804,-3.0801,-3.0794,-3.079,-3.0785,-3.0778,-3.0773,-3.0765,-3.0758,-3.075,-3.0743,-3.074,-3.0738,-3.0738,-3.0738,-3.0737,-3.0736,-3.0737,-3.074,-3.074,-3.074,-3.074,-3.074,-3.074,-3.0825,-3.0819,-3.0816,-3.0808,-3.0803,-3.0797,-3.0793,-3.0788,-3.0784,-3.0775,-3.077,-3.0765,-3.0759,-3.0751,-3.0744,-3.0742,-3.074,-3.0741,-3.0738,-3.0737,-3.0737,-3.0736,-3.0737,-3.0741,-3.0741,-3.074,-3.074,-3.074]},{"header":{"parameterUnit":"m.s-1","parameterCategory":1,"la1":30.2991,"la2":30.254,"lo1":-89.0895,"lo2":-89.0444,"dy":0.0017,"dx":0.0017,"nx":28,"ny":28,"refTime":"2024-07-02T03:00:00:Z","depth":0,"parameterNumber":3,"parameterNumberName":"V-component_of_WINDS"},"data":[0,0,0,0,0,0,0,0,0,0,0,0,0,0,0,0,0,0,0,0,0,0,0,0,0,0,0,0,0,0,0,0,0,0,0,0,0,0,0,0,0,0,0,0,0,0,0,0,0,0,0,0,0,0,0,0,0,0,3.1049,3.1051,0,3.1253,3.1255,3.1257,3.1345,3.1344,3.1344,3.1344,3.1551,3.1557,3.1562,0,0,0,0,0,0,0,0,0,0,0,0,0,3.0733,3.0738,3.1049,3.1051,3.1054,3.1252,3.1255,3.1258,3.1345,3.1344,3.1344,3.1343,3.1549,3.1556,3.1563,0,0,0,0,0,0,0,0,0,0,0,0,0,3.0897,3.074,3.1048,3.1121,3.113,3.1252,3.1255,3.1259,3.1345,3.1344,3.1344,3.1343,3.1547,3.1555,3.1564,3.1629,0,0,3.1591,3.1595,0,0,0,0,0,0,0,0,3.0887,3.0908,3.1108,3.1116,3.1126,3.1273,3.122,3.1383,3.1345,3.1263,3.1344,3.1343,3.1459,3.1475,3.1514,3.1638,3.1647,3.1592,3.1597,3.1601,3.1603,0,0,0,0,0,0,0,3.0876,3.09,3.1129,3.1111,3.1122,3.1143,3.1166,3.1251,3.1361,3.127,3.1277,3.13,3.1464,3.1505,3.152,3.165,3.1591,3.1599,3.1605,3.1608,3.1839,3.1839,0,0,0,0,0,0,3.0853,3.089,3.1123,3.1136,3.1003,3.1149,3.1175,3.1226,3.1361,3.1381,3.13,3.1303,3.1491,3.1509,3.1527,3.1612,3.1601,3.1609,3.1614,3.1838,3.1839,3.184,0,0,0,0,0,0,3.0846,3.0873,3.1115,3.1015,3.1047,3.1155,3.1212,3.123,3.1272,3.1383,3.1403,3.1323,3.1491,3.1515,3.1603,3.1621,3.1613,3.1621,3.1837,3.1838,3.1839,3.1782,0,0,0,0,0,0,3.0836,3.087,3.0896,3.1015,3.1052,3.1187,3.1214,3.1235,3.1287,3.1293,3.141,3.1429,3.1492,3.1589,3.1612,3.1633,3.1628,3.1836,3.1837,3.1839,3.1783,3.1781,3.178,0,0,0,0,0,3.0825,3.0871,3.0897,3.0924,3.1087,3.1188,3.121,3.1282,3.1288,3.1315,3.1387,3.1425,3.1615,3.1598,3.1624,3.1647,3.1835,3.1837,3.1839,3.1784,3.1782,3.178,0,0,0,0,0,0,3.0751,3.0888,3.0918,3.1004,3.1084,3.1203,3.1239,3.1278,3.1357,3.1359,3.1446,3.1472,3.1552,3.1609,3.1587,3.1717,3.1728,3.1735,3.1677,3.1676,3.1675,3.166,3.1635,0,0,0,0,0,3.0745,3.0816,3.0932,3.0997,3.1035,3.113,3.1177,3.1226,3.1312,3.1346,3.1424,3.1505,3.1584,3.1633,3.1711,3.1792,3.1818,3.1821,3.1819,3.1817,3.1822,3.1869,3.1872,3.1846,3.1846,3.1846,0,0,3.0733,3.0816,3.0856,3.0984,3.1052,3.1123,3.1158,3.1232,3.1285,3.1357,3.1445,3.1505,3.1602,3.1686,3.1727,3.1736,3.1835,3.182,3.1817,3.1824,3.1872,3.1874,3.1876,3.1847,3.1847,3.1847,0,0,3.0747,3.0817,3.088,3.0947,3.1049,3.1111,3.1126,3.1239,3.1282,3.1372,3.1427,3.1492,3.1625,3.1692,3.1743,3.1783,3.1821,3.1806,3.1798,3.1842,3.1844,3.1847,3.1861,3.1865,3.181,3.181,3.181,0,3.0719,3.0829,3.0906,3.0978,3.1032,3.1101,3.1164,3.1225,3.1347,3.1383,3.1391,3.1559,3.1629,3.1731,3.174,3.1779,3.1799,3.1793,3.1838,3.1841,3.1844,3.1859,3.1864,3.1808,3.1808,3.1808,3.1808,0,3.0789,3.0865,3.0902,3.1019,3.1078,3.1145,3.1232,3.1282,3.1326,3.1388,3.1478,3.1565,3.1662,3.1689,3.1733,3.1797,3.1799,3.1821,3.1834,3.1843,3.1858,3.1864,3.1804,3.1805,3.1806,3.1806,0,0,3.0763,3.0921,3.0934,3.0988,3.1105,3.1165,3.1235,3.133,3.1371,3.1453,3.1514,3.1625,3.1646,3.1704,3.1756,3.1795,3.1821,3.1813,3.1816,3.1811,3.1897,3.1879,3.1885,3.1847,3.1849,3.185,3.1889,0,3.0793,3.0922,3.0993,3.1091,3.1162,3.1228,3.1289,3.1367,3.1427,3.1495,3.1561,3.1638,3.1661,3.1696,3.1738,3.1809,3.1839,3.1807,3.1904,3.1907,3.1878,3.1893,3.1875,3.1907,3.1895,3.1896,3.1897,0,3.0846,3.0927,3.1032,3.1142,3.1174,3.1227,3.132,3.1385,3.1475,3.1516,3.1581,3.1632,3.1708,3.1715,3.1821,3.1797,3.1841,3.1882,3.1885,3.1897,3.1902,3.1905,3.192,3.1924,3.1907,3.1906,3.1906,0,3.0816,3.0951,3.1032,3.1076,3.1206,3.1242,3.1297,3.1387,3.144,3.1521,3.1556,3.1645,3.1693,3.1761,3.1835,3.1833,3.1934,3.1946,3.1969,3.1967,3.1987,3.1985,3.2009,3.2015,3.2015,3.2015,3.2015,0,3.0842,3.0904,3.102,3.107,3.1141,3.1222,3.129,3.1351,3.1431,3.1493,3.1556,3.1613,3.1708,3.1776,3.1835,3.1914,3.1935,3.197,3.1985,3.1965,3.196,3.1995,3.1994,3.2017,3.2016,3.2016,3.2016,0,3.0821,3.0901,3.0994,3.1109,3.1139,3.1187,3.1285,3.1336,3.1399,3.1477,3.15,3.1598,3.1683,3.1763,3.1876,3.1916,3.1994,3.2014,3.1964,3.1972,3.199,3.1987,3.2038,3.2049,3.2046,3.2046,3.2046,0,3.0833,3.0882,3.1002,3.1049,3.1103,3.1177,3.1231,3.1313,3.1367,3.1474,3.1511,3.16,3.1676,3.1808,3.1889,3.1976,3.1998,3.201,3.2011,3.199,3.1998,3.1994,3.2,3.2008,3.2007,3.2007,3.2007,0,3.0845,3.0882,3.0958,3.1047,3.111,3.1185,3.1261,3.1295,3.1392,3.1449,3.1537,3.1595,3.1711,3.1798,3.1894,3.1952,3.1995,3.2005,3.2015,3.1995,3.1964,3.1981,3.1959,3.2004,3.2004,3.2004,3.2005,3.2005,3.0841,3.0887,3.0979,3.1062,3.1128,3.1198,3.1251,3.1321,3.1395,3.1495,3.1539,3.1627,3.1717,3.185,3.1907,3.1977,3.1987,3.2002,3.2005,3.2008,3.2003,3.1953,3.1995,3.1995,3.1995,3.1996,3.1996,0,3.0856,3.0918,3.0993,3.1098,3.1163,3.1198,3.1285,3.1337,3.1413,3.1493,3.1566,3.1666,3.1752,3.184,3.193,3.197,3.1992,3.1991,3.1989,3.2001,3.1989,3.1971,3.1971,3.1971,3.1971,3.1971,3.1971,3.1971,3.0871,3.0952,3.1,3.1115,3.1177,3.1264,3.131,3.1375,3.1439,3.1548,3.162,3.1677,3.176,3.1857,3.1937,3.1961,3.1991,3.1984,3.2013,3.2,3.2002,3.2003,3.1987,3.199,3.199,3.202,3.202,3.2021]}]]